Weather History for Kansas City, MO

Change the Weather History Date:

Sunday, August 18, 2013

  Actual Average Record
Temperature  
Mean Temperature 71 °F -  
Max Temperature 84 °F 86 °F 104 °F (2003)
Min Temperature 60 °F 67 °F 57 °F (2012)
Cooling Degree Days 6    
Growing Degree Days 21 (Base 50)    
Moisture  
Dew Point 58 °F    
Average Humidity 63    
Maximum Humidity 87    
Minimum Humidity 41    
Precipitation  
Precipitation 0.00 in - - ()
Sea Level Pressure  
Sea Level Pressure 30.11 in    
Wind  
Wind Speed 3 mph (SE)    
Max Wind Speed 9 mph    
Max Gust Speed -    
Visibility 10 miles    
Events      
Averages and records for this station are not official NWS values.
T = Trace of Precipitation, MM = Missing Value Source: NWS Daily Summary

Daily Weather History Graph

Daily Weather History Graph

Search for Another Location

Airport:

Trip Planner

Search our weather history database for the weather conditions in past years. The results will help you decide how hot, cold, wet, or windy it might be!

Date:

Astronomy

Aug. 18, 2013 Rise Set
Actual Time 6:34 AM CDT 8:09 PM CDT
Civil Twilight 6:06 AM CDT 8:37 PM CDT
Nautical Twilight 5:32 AM CDT 9:11 PM CDT
Astronomical Twilight 4:55 AM CDT 9:47 PM CDT
Moon 6:15 PM CDT (8/18) 3:45 AM CDT (8/18)
Length of Visible Light 14h 31m
Length of Day
13h 34m
Waxing Gibbous, 92% of the Moon is Illuminated
Aug 18
Waxing Gibbous
Aug 20
Full
Aug 28
Last Quarter
Sep 5
New
Sep 12
First Quarter

Hourly Weather History & Observations

Time (CDT) Temp. Heat Index Dew Point Humidity Pressure Visibility Wind Dir Wind Speed Gust Speed Precip Events Conditions
12:54 AM 64.0 °F - 57.9 °F 80% 30.12 in 10.0 mi Calm Calm - N/A   Clear
1:54 AM 64.0 °F - 57.9 °F 80% 30.13 in 10.0 mi Calm Calm - N/A   Clear
2:54 AM 63.0 °F - 57.9 °F 84% 30.12 in 10.0 mi Calm Calm - N/A   Clear
3:54 AM 63.0 °F - 57.9 °F 84% 30.13 in 10.0 mi Calm Calm - N/A   Clear
4:54 AM 61.0 °F - 57.0 °F 87% 30.13 in 10.0 mi NNE 4.6 mph - N/A   Clear
5:54 AM 61.0 °F - 57.0 °F 87% 30.14 in 10.0 mi NNE 3.5 mph - N/A   Clear
6:54 AM 60.1 °F - 55.9 °F 86% 30.14 in 9.0 mi NE 4.6 mph - N/A   Clear
7:54 AM 64.0 °F - 59.0 °F 84% 30.15 in 8.0 mi Calm Calm - N/A   Clear
8:54 AM 68.0 °F - 59.0 °F 73% 30.16 in 10.0 mi NE 4.6 mph - N/A   Clear
9:54 AM 73.0 °F - 60.1 °F 64% 30.16 in 10.0 mi Calm Calm - N/A   Clear
10:54 AM 78.1 °F - 60.1 °F 54% 30.16 in 10.0 mi SE 4.6 mph - N/A   Clear
11:54 AM 80.1 °F 80.6 °F 57.9 °F 47% 30.14 in 10.0 mi SSE 5.8 mph - N/A   Mostly Cloudy
12:54 PM 80.1 °F 80.7 °F 59.0 °F 48% 30.13 in 10.0 mi ESE 6.9 mph - N/A   Scattered Clouds
1:54 PM 82.0 °F 82.0 °F 57.9 °F 44% 30.11 in 10.0 mi South 8.1 mph - N/A   Mostly Cloudy
2:54 PM 82.9 °F 82.4 °F 57.0 °F 41% 30.09 in 10.0 mi SE 5.8 mph - N/A   Mostly Cloudy
3:54 PM 82.9 °F 82.4 °F 57.0 °F 41% 30.07 in 10.0 mi SSE 5.8 mph - N/A   Mostly Cloudy
4:54 PM 82.9 °F 82.6 °F 57.9 °F 42% 30.07 in 10.0 mi South 9.2 mph - N/A   Partly Cloudy
5:54 PM 82.0 °F 82.0 °F 57.9 °F 44% 30.06 in 10.0 mi Variable 6.9 mph - N/A   Partly Cloudy
6:54 PM 82.0 °F 82.1 °F 59.0 °F 45% 30.05 in 10.0 mi SSE 6.9 mph - N/A   Partly Cloudy
7:54 PM 79.0 °F - 57.9 °F 48% 30.06 in 10.0 mi SSE 4.6 mph - N/A   Clear
8:54 PM 75.9 °F - 59.0 °F 56% 30.07 in 10.0 mi South 4.6 mph - N/A   Clear
9:54 PM 77.0 °F - 59.0 °F 54% 30.07 in 10.0 mi SE 3.5 mph - N/A   Clear
10:54 PM 73.9 °F - 60.1 °F 62% 30.08 in 10.0 mi Calm Calm - N/A   Clear
11:54 PM 72.0 °F - 60.1 °F 66% 30.09 in 10.0 mi Calm Calm - N/A   Clear